| time (UTC) | temp C | wind direction | speed KPH | gust KPH | rain 1hr cm | rain 24hr cm | rain mn cm | humidity % | barometer mb |
| 20260510204605 | 11 | 279 | 4.8 | 16.1 | 0.00 | 0.00 | 0.00 | 46 | 1016.7 |
| 20260510203101 | 11 | 314 | 4.8 | 11.3 | 0.00 | 0.00 | 0.00 | 41 | 1016.8 |
| 20260510201610 | 11 | 259 | 3.2 | 9.7 | 0.00 | 0.00 | 0.00 | 42 | 1016.8 |
| 20260510200110 | 11 | 259 | 4.8 | 11.3 | 0.00 | 0.00 | 0.00 | 40 | 1016.7 |
| 20260510194605 | 11 | 294 | 3.2 | 12.9 | 0.00 | 0.13 | 0.00 | 40 | 1016.8 |
| 20260510193102 | 10 | 281 | 6.4 | 17.7 | 0.00 | 0.13 | 0.00 | 41 | 1017.0 |
| 20260510191605 | 11 | 16 | 3.2 | 12.9 | 0.00 | 0.13 | 0.00 | 42 | 1017.1 |
| 20260510184604 | 11 | 317 | 3.2 | 12.9 | 0.00 | 0.13 | 0.00 | 42 | 1016.8 |
| 20260510183053 | 10 | 169 | 6.4 | 17.7 | 0.00 | 0.13 | 0.00 | 44 | 1016.6 |
| 20260510181608 | 10 | 266 | 8.0 | 22.5 | 0.00 | 0.13 | 0.00 | 41 | 1016.5 |
| 20260510180103 | 10 | 350 | 4.8 | 19.3 | 0.00 | 0.13 | 0.00 | 44 | 1016.7 |
| 20260510174552 | 10 | 308 | 6.4 | 14.5 | 0.00 | 0.13 | 0.00 | 46 | 1016.4 |
| 20260510173056 | 10 | 5 | 3.2 | 19.3 | 0.00 | 0.13 | 0.00 | 47 | 1016.3 |
| 20260510171558 | 10 | 302 | 3.2 | 9.7 | 0.00 | 0.13 | 0.00 | 50 | 1016.2 |
| 20260510170054 | 10 | 259 | 6.4 | 16.1 | 0.00 | 0.13 | 0.00 | 50 | 1016.1 |
| 20260510164601 | 9 | 251 | 8.0 | 16.1 | 0.00 | 0.13 | 0.00 | 48 | 1016.0 |
| 20260510163053 | 9 | 240 | 8.0 | 22.5 | 0.00 | 0.13 | 0.00 | 46 | 1015.9 |
| 20260510161601 | 9 | 295 | 3.2 | 16.1 | 0.00 | 0.13 | 0.00 | 47 | 1015.7 |
| 20260510160056 | 9 | 238 | 4.8 | 16.1 | 0.00 | 0.13 | 0.00 | 52 | 1015.4 |
| 20260510154600 | 8 | 292 | 6.4 | 16.1 | 0.00 | 0.13 | 0.00 | 54 | 1015.4 |
| 20260510153055 | 8 | 210 | 6.4 | 22.5 | 0.00 | 0.13 | 0.00 | 53 | 1015.3 |
| 20260510151556 | 8 | 295 | 6.4 | 19.3 | 0.00 | 0.13 | 0.00 | 54 | 1015.3 |
| 20260510150123 | 8 | 283 | 4.8 | 14.5 | 0.00 | 0.13 | 0.00 | 57 | 1014.9 |
| 20260510144554 | 8 | 304 | 3.2 | 11.3 | 0.00 | 0.13 | 0.00 | 56 | 1014.6 |
| 20260510143054 | 7 | 339 | 6.4 | 19.3 | 0.00 | 0.13 | 0.00 | 56 | 1014.5 |
| 20260510141555 | 8 | 306 | 4.8 | 16.1 | 0.00 | 0.13 | 0.00 | 56 | 1014.3 |
| 20260510140053 | 7 | 280 | 8.0 | 19.3 | 0.00 | 0.13 | 0.00 | 55 | 1014.0 |
| 20260510134557 | 7 | 223 | 6.4 | 14.5 | 0.00 | 0.13 | 0.00 | 54 | 1013.8 |
| 20260510133058 | 7 | 316 | 4.8 | 16.1 | 0.00 | 0.13 | 0.00 | 54 | 1013.6 |
| 20260510131553 | 6 | 297 | 6.4 | 14.5 | 0.00 | 0.13 | 0.00 | 57 | 1013.4 |
| 20260510130056 | 6 | 293 | 4.8 | 12.9 | 0.00 | 0.13 | 0.00 | 59 | 1013.3 |
| 20260510124602 | 6 | 321 | 3.2 | 14.5 | 0.00 | 0.13 | 0.00 | 62 | 1013.2 |
| 20260510123100 | 5 | 252 | 3.2 | 16.1 | 0.00 | 0.13 | 0.00 | 63 | 1013.3 |
| 20260510121552 | 5 | 287 | 4.8 | 14.5 | 0.00 | 0.13 | 0.00 | 66 | 1013.1 |
| 20260510120054 | 5 | 311 | 3.2 | 9.7 | 0.00 | 0.13 | 0.00 | 66 | 1012.9 |
| 20260510114559 | 4 | 0 | 4.8 | 9.7 | 0.00 | 0.13 | 0.00 | 68 | 1012.6 |
| 20260510113057 | 3 | 307 | 1.6 | 8.0 | 0.00 | 0.13 | 0.00 | 71 | 1012.4 |
| 20260510111604 | 3 | 288 | 1.6 | 6.4 | 0.00 | 0.13 | 0.00 | 73 | 1012.0 |
| 20260510110057 | 2 | 239 | 1.6 | 4.8 | 0.00 | 0.13 | 0.00 | 74 | 1011.9 |
| 20260510104608 | 2 | 268 | 0.0 | 3.2 | 0.00 | 0.13 | 0.00 | 75 | 1011.7 |
| 20260510103106 | 2 | 0 | 0.0 | 3.2 | 0.00 | 0.13 | 0.00 | 75 | 1011.4 |
| 20260510101601 | 2 | 241 | 1.6 | 4.8 | 0.00 | 0.13 | 0.00 | 76 | 1011.2 |
| 20260510094614 | 2 | 277 | 0.0 | 4.8 | 0.00 | 0.13 | 0.00 | 76 | 1010.4 |
| 20260510093121 | 2 | 299 | 0.0 | 4.8 | 0.00 | 0.13 | 0.00 | 75 | 1010.3 |
| 20260510091557 | 2 | 266 | 1.6 | 6.4 | 0.00 | 0.13 | 0.00 | 73 | 1010.1 |
| 20260510090107 | 2 | 297 | 1.6 | 8.0 | 0.00 | 0.13 | 0.00 | 73 | 1009.8 |
| 20260510084600 | 2 | 219 | 0.0 | 6.4 | 0.00 | 0.13 | 0.00 | 75 | 1009.6 |
| 20260510083105 | 2 | 288 | 1.6 | 6.4 | 0.00 | 0.13 | 0.00 | 77 | 1009.4 |
| 20260510081555 | 2 | 302 | 1.6 | 4.8 | 0.00 | 0.13 | 0.00 | 78 | 1009.4 |
| 20260510080056 | 2 | 0 | 0.0 | 3.2 | 0.00 | 0.13 | 0.00 | 78 | 1009.4 |
| 20260510074602 | 2 | 0 | 0.0 | 1.6 | 0.00 | 0.13 | 0.00 | 78 | 1009.1 |
| 20260510073057 | 2 | 0 | 0.0 | 3.2 | 0.00 | 0.13 | 0.00 | 79 | 1009.0 |
| 20260510071553 | 3 | 0 | 0.0 | 1.6 | 0.00 | 0.13 | 0.00 | 78 | 1008.8 |
| 20260510070053 | 3 | 0 | 0.0 | 3.2 | 0.00 | 0.13 | 0.00 | 77 | 1008.7 |
| 20260510064559 | 3 | 0 | 0.0 | 3.2 | 0.00 | 0.13 | 0.00 | 76 | 1008.6 |
| 20260510063053 | 3 | 0 | 0.0 | 3.2 | 0.00 | 0.13 | 0.00 | 76 | 1008.8 |
| 20260510061600 | 3 | 277 | 0.0 | 4.8 | 0.00 | 0.13 | 0.00 | 74 | 1008.8 |
| 20260510060052 | 3 | 0 | 0.0 | 3.2 | 0.00 | 0.13 | 0.00 | 73 | 1008.7 |
| 20260510054551 | 4 | 308 | 1.6 | 4.8 | 0.00 | 0.13 | 0.00 | 72 | 1008.7 |
| 20260510053052 | 4 | 0 | 0.0 | 1.6 | 0.00 | 0.13 | 0.00 | 71 | 1008.5 |
| 20260510051603 | 4 | 339 | 0.0 | 9.7 | 0.00 | 0.13 | 0.00 | 70 | 1008.3 |
| 20260510050054 | 4 | 294 | 1.6 | 9.7 | 0.00 | 0.13 | 0.00 | 71 | 1008.1 |
| 20260510044601 | 5 | 297 | 0.0 | 9.7 | 0.00 | 0.13 | 0.00 | 70 | 1007.9 |
| 20260510043051 | 5 | 0 | 3.2 | 8.0 | 0.00 | 0.13 | 0.00 | 70 | 1007.8 |
| 20260510041551 | 5 | 9 | 1.6 | 11.3 | 0.00 | 0.13 | 0.00 | 69 | 1007.7 |
| 20260510040056 | 5 | 277 | 1.6 | 6.4 | 0.00 | 0.13 | 0.00 | 69 | 1007.4 |
| 20260510034553 | 5 | 304 | 1.6 | 11.3 | 0.00 | 0.13 | 0.13 | 71 | 1007.2 |
| 20260510033059 | 6 | 270 | 0.0 | 8.0 | 0.00 | 0.13 | 0.13 | 71 | 1007.0 |
| 20260510031554 | 6 | 302 | 1.6 | 6.4 | 0.00 | 0.13 | 0.13 | 68 | 1006.8 |
| 20260510024556 | 7 | 66 | 3.2 | 11.3 | 0.00 | 0.13 | 0.13 | 62 | 1006.5 |
| 20260510023059 | 7 | 294 | 3.2 | 8.0 | 0.00 | 0.13 | 0.13 | 60 | 1006.3 |
| 20260510021600 | 7 | 0 | 1.6 | 8.0 | 0.00 | 0.13 | 0.13 | 56 | 1005.9 |
| 20260510020053 | 8 | 233 | 3.2 | 8.0 | 0.00 | 0.13 | 0.13 | 55 | 1005.7 |
| 20260510014553 | 8 | 295 | 0.0 | 9.7 | 0.00 | 0.13 | 0.13 | 58 | 1005.4 |
| 20260510013051 | 8 | 298 | 1.6 | 11.3 | 0.00 | 0.13 | 0.13 | 59 | 1005.2 |
| 20260510011552 | 8 | 254 | 1.6 | 8.0 | 0.00 | 0.13 | 0.13 | 60 | 1005.0 |
| 20260510010055 | 8 | 345 | 0.0 | 8.0 | 0.00 | 0.13 | 0.13 | 62 | 1004.5 |
| 20260510004552 | 9 | 249 | 0.0 | 4.8 | 0.00 | 0.13 | 0.13 | 61 | 1004.2 |
| 20260510003051 | 9 | 282 | 0.0 | 8.0 | 0.00 | 0.13 | 0.13 | 61 | 1004.0 |
| 20260510001550 | 10 | 0 | 3.2 | 11.3 | 0.00 | 0.13 | 0.13 | 60 | 1003.6 |
| 20260510000053 | 10 | 256 | 1.6 | 8.0 | 0.00 | 0.13 | 0.13 | 61 | 1003.2 |
| 20260509234554 | 11 | 275 | 3.2 | 11.3 | 0.00 | 0.13 | 0.13 | 60 | 1002.9 |
| 20260509233051 | 11 | 327 | 1.6 | 17.7 | 0.00 | 0.13 | 0.13 | 59 | 1002.4 |
| 20260509231552 | 13 | 287 | 8.0 | 27.4 | 0.00 | 0.13 | 0.13 | 58 | 1002.1 |
| 20260509230057 | 14 | 259 | 4.8 | 16.1 | 0.00 | 0.13 | 0.13 | 56 | 1001.3 |
| 20260509224555 | 14 | 274 | 4.8 | 22.5 | 0.00 | 0.13 | 0.13 | 56 | 1001.0 |
| 20260509223052 | 14 | 259 | 8.0 | 19.3 | 0.00 | 0.13 | 0.13 | 56 | 1000.9 |
| 20260509221553 | 14 | 234 | 6.4 | 17.7 | 0.00 | 0.13 | 0.13 | 57 | 1000.8 |
| 20260509220103 | 15 | 297 | 4.8 | 16.1 | 0.00 | 0.13 | 0.13 | 60 | 1000.7 |
| 20260509214558 | 15 | 267 | 4.8 | 20.9 | 0.00 | 0.13 | 0.13 | 61 | 1000.5 |
| 20260509213122 | 15 | 295 | 9.7 | 17.7 | 0.00 | 0.13 | 0.13 | 60 | 1000.5 |
| 20260509211554 | 15 | 219 | 6.4 | 24.1 | 0.00 | 0.13 | 0.13 | 64 | 1000.4 |
| 20260509210104 | 15 | 238 | 6.4 | 20.9 | 0.00 | 0.13 | 0.13 | 69 | 1000.4 |